GW5392 Weather Reports


Display with metric or nautical units.
time (UTC)temp
F
wind
direction
speed
MPH
gust
MPH
rain 1hr
in
rain 24hr
in
rain mn
in
humidity
%
barometer
mb
20260906122044 59 51 3.0 5.0 0.00 0.00 0.00 91 1019.9
20260906121602 59 53 3.0 4.0 0.00 0.00 0.00 92 1019.8
20260906121046 58 49 2.0 3.0 0.00 0.00 0.00 92 1019.8
20260906120544 58 49 1.0 2.0 0.00 0.00 0.00 92 1019.9
20260906120100 57 49 1.0 2.0 0.00 0.00 0.00 93 1019.8
20260906115546 57 49 1.0 3.0 0.00 0.00 0.00 93 1019.7
20260906115043 57 49 1.0 3.0 0.00 0.00 0.00 93 1019.7
20260906114620 57 55 2.0 3.0 0.00 0.00 0.00 94 1019.6
20260906114043 56 61 2.0 3.0 0.00 0.00 0.00 93 1019.6
20260906113543 56 58 1.0 2.0 0.00 0.00 0.00 93 1019.4
20260906113100 56 70 1.0 2.0 0.00 0.00 0.00 93 1019.3
20260906112543 56 70 0.0 2.0 0.00 0.00 0.00 93 1019.3
20260906112044 57 70 0.0 2.0 0.00 0.00 0.00 93 1019.3
20260906111620 57 70 0.0 3.0 0.00 0.00 0.00 93 1019.3
20260906111046 56 70 2.0 4.0 0.00 0.00 0.00 93 1019.2
20260906110544 56 57 2.0 4.0 0.00 0.00 0.00 93 1019.1
20260906110106 56 65 3.0 4.0 0.00 0.00 0.00 93 1019.1
20260906105543 56 67 3.0 4.0 0.00 0.00 0.00 93 1019.2
20260906105044 56 61 2.0 3.0 0.00 0.00 0.00 93 1019.1
20260906104606 56 58 2.0 3.0 0.00 0.00 0.00 93 1019.1
20260906104043 56 32 2.0 2.0 0.00 0.00 0.00 93 1019.0
20260906103543 56 32 1.0 2.0 0.00 0.00 0.00 92 1019.0
20260906103057 56 32 2.0 2.0 0.00 0.00 0.00 92 1019.2
20260906102547 57 32 1.0 2.0 0.00 0.00 0.00 92 1019.2
20260906102047 57 32 1.0 2.0 0.00 0.00 0.00 92 1019.2
20260906101605 57 32 1.0 2.0 0.00 0.00 0.00 91 1019.2
20260906101049 57 61 1.0 2.0 0.00 0.00 0.00 92 1019.2
20260906100547 57 61 1.0 4.0 0.00 0.00 0.00 91 1019.1
20260906100105 58 61 2.0 4.0 0.00 0.00 0.00 91 1019.1
20260906095550 58 77 3.0 4.0 0.00 0.00 0.00 92 1019.1
20260906095044 58 80 3.0 5.0 0.00 0.00 0.00 92 1019.0
20260906094558 58 74 4.0 5.0 0.00 0.00 0.00 92 1018.9
20260906094049 57 83 2.0 3.0 0.00 0.00 0.00 92 1018.9
20260906093548 58 61 2.0 3.0 0.00 0.00 0.00 92 1019.1
20260906093103 57 61 2.0 4.0 0.00 0.00 0.00 91 1019.0
20260906092548 57 44 3.0 4.0 0.00 0.00 0.00 91 1018.9
20260906092048 58 55 2.0 2.0 0.00 0.00 0.00 90 1019.1
20260906091607 58 33 2.0 2.0 0.00 0.00 0.00 90 1019.0
20260906091049 59 113 1.0 2.0 0.00 0.00 0.00 89 1019.0
20260906090547 59 113 1.0 2.0 0.00 0.00 0.00 88 1019.1
20260906090115 59 113 0.0 2.0 0.00 0.00 0.00 87 1019.1
20260906085544 60 113 1.0 3.0 0.00 0.00 0.00 88 1018.9
20260906085046 60 113 1.0 3.0 0.00 0.00 0.00 88 1018.8
20260906084606 60 113 2.0 6.0 0.00 0.00 0.00 88 1018.8
20260906084046 60 113 2.0 6.0 0.00 0.00 0.00 88 1018.7
20260906083544 60 103 2.0 4.0 0.00 0.00 0.00 88 1018.5
20260906083057 60 107 3.0 6.0 0.00 0.00 0.00 87 1018.4
20260906082546 60 94 3.0 6.0 0.00 0.00 0.00 87 1018.5
20260906082050 60 123 3.0 4.0 0.00 0.00 0.00 87 1018.4
20260906081556 60 107 3.0 6.0 0.00 0.00 0.00 87 1018.4
20260906081050 60 106 3.0 6.0 0.00 0.00 0.00 87 1018.5
20260906080547 60 96 3.0 6.0 0.00 0.00 0.00 87 1018.4
20260906080055 60 98 3.0 4.0 0.00 0.00 0.00 87 1018.3
20260906075546 60 119 3.0 4.0 0.00 0.00 0.00 87 1018.3
20260906075046 60 118 2.0 6.0 0.00 0.00 0.00 87 1018.2
20260906074610 60 104 3.0 6.0 0.00 0.00 0.00 87 1018.2
20260906074046 61 95 2.0 6.0 0.00 0.00 0.00 87 1018.2
20260906073544 61 109 3.0 6.0 0.00 0.00 0.00 86 1018.3
20260906073103 61 99 4.0 6.0 0.00 0.00 0.00 87 1018.2
20260906072547 61 100 3.0 4.0 0.00 0.00 0.00 87 1018.0
20260906072050 61 114 3.0 4.0 0.00 0.00 0.00 86 1018.1
20260906071609 61 87 2.0 4.0 0.00 0.00 0.00 86 1018.1
20260906071047 61 123 2.0 6.0 0.00 0.00 0.00 86 1018.3
20260906070548 61 122 2.0 6.0 0.00 0.00 0.00 86 1018.2
20260906070135 61 142 3.0 6.0 0.00 0.00 0.00 85 1018.3
20260906065548 62 98 2.0 4.0 0.00 0.00 0.00 85 1018.2
20260906065045 62 122 3.0 6.0 0.00 0.00 0.00 85 1018.3
20260906064557 62 90 3.0 7.0 0.00 0.00 0.00 84 1018.2
20260906064047 62 101 3.0 7.0 0.00 0.00 0.00 84 1018.2
20260906063546 62 98 4.0 6.0 0.00 0.00 0.00 84 1018.2
20260906063108 62 106 4.0 6.0 0.00 0.00 0.00 83 1018.2
20260906062547 62 100 3.0 6.0 0.00 0.00 0.00 83 1018.3
20260906062046 62 105 2.0 4.0 0.00 0.00 0.00 82 1018.3
20260906061635 63 106 2.0 4.0 0.00 0.00 0.00 82 1018.3
20260906061047 63 101 3.0 6.0 0.00 0.00 0.00 81 1018.3
20260906060548 63 91 3.0 6.0 0.00 0.00 0.00 81 1018.3
20260906060109 63 107 4.0 6.0 0.00 0.00 0.00 80 1018.3
20260906055546 63 83 4.0 6.0 0.00 0.00 0.00 80 1018.3
20260906055047 63 88 4.0 6.0 0.00 0.00 0.00 80 1018.3
20260906054601 63 89 4.0 6.0 0.00 0.00 0.00 79 1018.2
20260906054046 63 105 3.0 6.0 0.00 0.00 0.00 79 1018.3
20260906053545 64 103 3.0 6.0 0.00 0.00 0.00 79 1018.1
20260906053057 64 96 3.0 6.0 0.00 0.00 0.00 78 1018.3
20260906052546 64 71 3.0 6.0 0.00 0.00 0.00 78 1018.1
20260906052046 64 121 4.0 7.0 0.00 0.00 0.00 78 1018.0
20260906051553 64 98 4.0 7.0 0.00 0.00 0.00 77 1018.0
20260906051045 65 97 5.0 8.0 0.00 0.00 0.00 77 1018.0
20260906050545 65 105 5.0 8.0 0.00 0.00 0.00 76 1017.9
20260906050115 65 114 6.0 8.0 0.00 0.00 0.00 76 1017.9
20260906045544 65 84 5.0 7.0 0.00 0.00 0.00 76 1018.0
20260906045045 65 95 4.0 8.0 0.00 0.00 0.00 76 1017.9
20260906044557 66 108 5.0 9.0 0.00 0.00 0.00 76 1017.9
20260906044045 66 98 4.0 9.0 0.00 0.00 0.00 75 1017.9
20260906043545 66 81 7.0 9.0 0.00 0.00 0.00 75 1017.8
20260906043107 66 91 5.0 9.0 0.00 0.00 0.00 76 1017.8
20260906042545 66 117 4.0 11.0 0.00 0.00 0.00 75 1017.7
20260906042056 66 108 7.0 11.0 0.00 0.00 0.00 75 1017.6
20260906041555 66 115 5.0 11.0 0.00 0.00 0.00 76 1017.7
20260906041046 67 152 5.0 11.0 0.00 0.00 0.00 76 1017.6
20260906040545 66 107 5.0 10.0 0.00 0.00 0.00 76 1017.6
20260906040119 67 117 5.0 10.0 0.00 0.00 0.00 77 1017.7
20260906035545 67 81 4.0 9.0 0.00 0.00 0.00 77 1017.7
20260906035043 67 132 4.0 8.0 0.00 0.00 0.00 77 1017.7
20260906034557 67 128 4.0 7.0 0.00 0.00 0.00 78 1017.6
20260906034045 67 123 3.0 6.0 0.00 0.00 0.00 78 1017.5
20260906033545 67 104 3.0 7.0 0.00 0.00 0.00 78 1017.4
20260906033054 67 105 3.0 8.0 0.00 0.00 0.00 79 1017.3
20260906032548 67 110 3.0 8.0 0.00 0.00 0.00 79 1017.4
20260906032045 67 123 3.0 7.0 0.00 0.00 0.00 79 1017.4
20260906031608 67 97 4.0 7.0 0.00 0.00 0.00 79 1017.4
20260906031045 68 123 4.0 6.0 0.00 0.00 0.00 79 1017.4
20260906030542 68 103 3.0 6.0 0.00 0.00 0.00 78 1017.3
20260906030108 68 121 2.0 6.0 0.00 0.00 0.00 78 1017.3
20260906025542 68 98 3.0 7.0 0.00 0.00 0.00 78 1017.3
20260906025046 68 121 3.0 7.0 0.00 0.00 0.00 78 1017.2
20260906024559 68 99 3.0 5.0 0.00 0.00 0.00 78 1017.2
20260906024047 69 86 3.0 5.0 0.00 0.00 0.00 78 1017.3
20260906023548 69 95 2.0 7.0 0.00 0.00 0.00 78 1017.1
20260906023131 69 102 3.0 7.0 0.00 0.00 0.00 77 1016.9
20260906022547 69 94 2.0 5.0 0.00 0.00 0.00 78 1017.0
20260906022043 69 101 3.0 6.0 0.00 0.00 0.00 78 1016.8
20260906021605 69 91 3.0 6.0 0.00 0.00 0.00 78 1016.8
20260906021043 70 96 2.0 4.0 0.00 0.00 0.00 77 1016.7
20260906020543 70 98 2.0 6.0 0.00 0.00 0.00 76 1016.7
20260906020112 71 108 3.0 6.0 0.00 0.00 0.00 76 1016.7
20260906015545 71 103 3.0 6.0 0.00 0.00 0.00 76 1016.7
20260906015044 71 107 2.0 4.0 0.00 0.00 0.00 76 1016.7
20260906014626 71 107 3.0 7.0 0.00 0.00 0.00 75 1016.6
20260906014043 71 97 3.0 7.0 0.00 0.00 0.00 75 1016.6
20260906013547 72 96 3.0 8.0 0.00 0.00 0.00 75 1016.6
20260906013104 72 94 5.0 9.0 0.00 0.00 0.00 74 1016.5
20260906012543 72 74 5.0 9.0 0.00 0.00 0.00 74 1016.4
20260906012044 73 92 4.0 7.0 0.00 0.00 0.00 75 1016.5
20260906011606 73 97 4.0 6.0 0.00 0.00 0.00 75 1016.4
20260906011044 73 90 2.0 6.0 0.00 0.00 0.00 75 1016.4
20260906010544 73 86 3.0 5.0 0.00 0.00 0.00 75 1016.3
20260906010055 73 97 3.0 8.0 0.00 0.00 0.00 76 1016.3
20260906005544 73 92 3.0 8.0 0.00 0.00 0.00 75 1016.2
20260906005043 73 88 4.0 8.0 0.00 0.00 0.00 76 1016.1
20260906004612 73 91 4.0 8.0 0.00 0.00 0.00 76 1016.0
20260906004043 73 80 5.0 8.0 0.00 0.00 0.00 76 1016.0
20260906003547 73 79 5.0 8.0 0.00 0.00 0.00 78 1015.8
20260906003057 73 78 4.0 6.0 0.00 0.00 0.00 79 1015.8
20260906002543 73 61 3.0 5.0 0.00 0.00 0.00 79 1015.9
20260906002045 73 61 3.0 5.0 0.00 0.00 0.00 78 1015.9
20260906001554 73 47 3.0 4.0 0.00 0.00 0.00 78 1016.0
20260906001045 74 45 3.0 4.0 0.00 0.00 0.00 77 1015.9
20260906000544 74 69 2.0 4.0 0.00 0.00 0.00 77 1015.9
20260906000111 74 35 2.0 6.0 0.00 0.00 0.00 76 1015.9
20260905235544 74 80 3.0 7.0 0.00 0.00 0.00 75 1016.0
20260905235043 75 79 4.0 7.0 0.00 0.00 0.00 74 1016.0
20260905234602 75 69 3.0 7.0 0.00 0.00 0.00 74 1015.9
20260905234044 75 83 4.0 7.0 0.00 0.00 0.00 74 1015.9
20260905233544 75 78 4.0 7.0 0.00 0.00 0.00 74 1015.9
20260905233109 75 57 4.0 7.0 0.00 0.00 0.00 74 1015.9
20260905232545 75 63 4.0 7.0 0.00 0.00 0.00 73 1015.8
20260905232046 76 67 4.0 7.0 0.00 0.00 0.00 75 1015.7
20260905231556 76 69 4.0 7.0 0.00 0.00 0.00 74 1015.7
20260905231042 76 74 2.0 4.0 0.00 0.00 0.00 74 1015.7
20260905230543 77 96 2.0 4.0 0.00 0.00 0.00 75 1015.7
20260905230109 77 50 2.0 4.0 0.00 0.00 0.00 73 1015.7
20260905225543 77 30 2.0 4.0 0.00 0.00 0.00 73 1015.7
20260905225043 76 50 2.0 4.0 0.00 0.00 0.00 73 1015.6
20260905224609 76 79 3.0 6.0 0.00 0.00 0.00 73 1015.7
20260905224042 76 82 3.0 7.0 0.00 0.00 0.00 73 1015.7
20260905223545 77 78 4.0 10.0 0.00 0.00 0.00 72 1015.7
20260905223057 77 65 4.0 10.0 0.00 0.00 0.00 73 1015.6
20260905222546 77 69 7.0 10.0 0.00 0.00 0.00 71 1015.6
20260905222044 77 80 4.0 8.0 0.00 0.00 0.00 74 1015.5
20260905221603 77 74 4.0 8.0 0.00 0.00 0.00 72 1015.6
20260905221042 77 109 4.0 8.0 0.00 0.00 0.00 73 1015.4
20260905220545 77 115 4.0 9.0 0.00 0.00 0.00 72 1015.4
20260905220116 77 77 3.0 9.0 0.00 0.00 0.00 74 1015.3
20260905215542 77 97 4.0 8.0 0.00 0.00 0.00 73 1015.2
20260905215042 77 103 5.0 7.0 0.00 0.00 0.00 73 1015.1
20260905214602 77 128 2.0 9.0 0.00 0.00 0.00 74 1015.0
20260905214043 77 103 5.0 9.0 0.00 0.00 0.00 73 1015.1
20260905213546 76 91 5.0 10.0 0.00 0.00 0.00 75 1015.3
20260905213108 76 82 8.0 11.0 0.00 0.00 0.00 75 1015.2
20260905212545 76 95 7.0 11.0 0.00 0.00 0.00 74 1015.3
20260905212045 76 98 7.0 11.0 0.00 0.00 0.00 75 1015.3
20260905211609 76 101 5.0 9.0 0.00 0.00 0.00 75 1015.4
20260905211042 76 113 5.0 9.0 0.00 0.00 0.00 76 1015.3
20260905210544 76 122 4.0 9.0 0.00 0.00 0.00 76 1015.3
20260905210058 76 80 6.0 8.0 0.00 0.00 0.00 76 1015.2
20260905205545 76 132 3.0 10.0 0.00 0.00 0.00 77 1015.3
20260905205045 76 87 6.0 10.0 0.00 0.00 0.00 78 1015.3
20260905204605 75 71 7.0 10.0 0.00 0.00 0.00 78 1015.3
20260905204046 75 101 5.0 9.0 0.00 0.00 0.00 79 1015.4
20260905203542 75 69 3.0 9.0 0.00 0.00 0.00 79 1015.5
20260905203102 75 61 4.0 9.0 0.00 0.00 0.00 81 1015.5
20260905202545 75 101 4.0 10.0 0.00 0.00 0.00 80 1015.5
20260905202047 74 49 4.0 11.0 0.00 0.00 0.00 81 1015.5
20260905201555 74 94 5.0 11.0 0.00 0.00 0.00 81 1015.5
20260905201043 74 69 7.0 11.0 0.00 0.00 0.00 81 1015.5
20260905200543 74 63 8.0 11.0 0.00 0.00 0.00 81 1015.6
20260905200109 74 97 7.0 10.0 0.00 0.00 0.00 80 1015.6
20260905195543 74 84 5.0 10.0 0.00 0.00 0.00 81 1015.6
20260905195043 73 80 5.0 10.0 0.00 0.00 0.00 82 1015.6
20260905194604 73 94 5.0 9.0 0.00 0.00 0.00 82 1015.6
20260905194044 73 59 5.0 11.0 0.00 0.00 0.00 84 1015.6
20260905193543 73 60 4.0 11.0 0.00 0.00 0.00 84 1015.8
20260905193056 72 61 8.0 11.0 0.00 0.00 0.00 85 1015.9
20260905192544 72 68 7.0 11.0 0.00 0.00 0.00 85 1016.0
20260905192043 72 88 8.0 11.0 0.00 0.00 0.00 86 1016.0
20260905191605 72 87 6.0 9.0 0.00 0.00 0.00 85 1015.8
20260905191043 72 75 6.0 9.0 0.00 0.00 0.00 87 1015.9
20260905190544 72 52 6.0 8.0 0.00 0.00 0.00 90 1016.0
20260905190108 71 55 5.0 9.0 0.00 0.00 0.00 91 1016.1
20260905185544 70 59 3.0 12.0 0.00 0.00 0.00 91 1016.0
20260905185044 70 74 7.0 12.0 0.00 0.00 0.00 92 1016.0
20260905184605 70 71 5.0 9.0 0.00 0.00 0.00 91 1016.0
20260905184044 70 34 5.0 9.0 0.00 0.00 0.00 91 1016.1
20260905183545 70 52 6.0 9.0 0.00 0.00 0.00 91 1016.2
20260905183114 70 57 4.0 8.0 0.00 0.00 0.00 91 1016.2
20260905182543 70 49 4.0 8.0 0.00 0.00 0.00 91 1016.3
20260905182044 70 52 4.0 8.0 0.00 0.00 0.00 90 1016.2
20260905181558 70 57 3.0 8.0 0.00 0.00 0.00 89 1016.2
20260905181047 70 55 4.0 8.0 0.00 0.00 0.00 88 1016.2
20260905180547 70 54 5.0 8.0 0.00 0.00 0.00 87 1016.1
20260905175544 70 66 3.0 12.0 0.00 0.01 0.00 88 1016.2
20260905175045 70 84 7.0 11.0 0.00 0.01 0.00 87 1016.2
20260905174559 70 66 4.0 9.0 0.00 0.01 0.00 87 1016.1
20260905174044 70 82 3.0 9.0 0.00 0.01 0.00 88 1016.0
20260905173544 70 84 5.0 11.0 0.00 0.01 0.00 88 1015.9
20260905173104 70 51 7.0 13.0 0.00 0.01 0.00 87 1015.9
20260905172551 69 78 9.0 13.0 0.00 0.01 0.00 87 1015.8
20260905172048 69 82 9.0 13.0 0.00 0.01 0.00 87 1015.8
20260905171605 69 116 9.0 13.0 0.00 0.01 0.00 87 1015.9
20260905171047 69 96 9.0 13.0 0.00 0.01 0.00 87 1016.0
20260905170547 69 93 8.0 13.0 0.00 0.01 0.00 87 1016.0
20260905170101 70 90 7.0 12.0 0.00 0.01 0.00 88 1016.1
20260905165548 69 91 5.0 12.0 0.00 0.02 0.00 89 1016.1
20260905165049 69 73 8.0 12.0 0.00 0.02 0.00 89 1016.0
20260905164603 69 88 8.0 12.0 0.00 0.02 0.00 89 1016.0
20260905164047 69 92 9.0 12.0 0.00 0.02 0.00 88 1015.9
20260905163545 69 74 8.0 12.0 0.00 0.02 0.00 88 1015.8
20260905163055 69 75 8.0 12.0 0.00 0.02 0.00 88 1015.9
20260905162546 69 84 8.0 12.0 0.00 0.02 0.00 88 1015.9
20260905162046 69 45 9.0 12.0 0.00 0.02 0.00 88 1015.9
20260905161604 69 78 8.0 11.0 0.00 0.02 0.00 88 1015.9
20260905161045 69 76 8.0 11.0 0.00 0.02 0.00 88 1016.0
20260905160545 68 77 7.0 9.0 0.00 0.02 0.00 88 1016.0
20260905160123 68 63 6.0 8.0 0.00 0.02 0.00 89 1016.0
20260905155547 68 84 4.0 8.0 0.00 0.07 0.00 89 1016.0
20260905155045 68 67 5.0 10.0 0.00 0.07 0.00 89 1015.9
20260905154607 68 77 5.0 10.0 0.00 0.07 0.00 89 1015.8
20260905154046 68 92 7.0 10.0 0.00 0.07 0.00 89 1015.8
20260905153545 68 75 5.0 8.0 0.00 0.07 0.00 89 1015.8
20260905153112 68 79 5.0 8.0 0.00 0.07 0.00 88 1015.7
20260905152547 69 81 5.0 8.0 0.00 0.07 0.00 89 1015.7
20260905152046 69 59 4.0 8.0 0.00 0.07 0.00 88 1015.7
20260905151609 69 85 4.0 8.0 0.00 0.07 0.00 87 1015.7
20260905151046 69 94 6.0 8.0 0.00 0.07 0.00 86 1015.7
20260905150545 69 98 4.0 8.0 0.00 0.07 0.00 86 1015.6
20260905150120 69 128 6.0 9.0 0.00 0.07 0.00 85 1015.7
20260905145546 69 128 2.0 9.0 0.00 0.09 0.00 86 1015.8
20260905145048 69 82 6.0 9.0 0.00 0.09 0.00 85 1015.7
20260905144604 70 123 3.0 7.0 0.00 0.09 0.00 85 1015.5
20260905144045 70 129 3.0 7.0 0.00 0.09 0.00 85 1015.4
20260905143546 70 87 3.0 6.0 0.00 0.09 0.00 85 1015.3
20260905143104 70 94 3.0 8.0 0.00 0.09 0.00 86 1015.4
20260905142546 69 76 3.0 12.0 0.00 0.09 0.00 86 1015.3
20260905142046 69 99 5.0 12.0 0.00 0.09 0.00 85 1015.2
20260905141620 69 128 5.0 12.0 0.00 0.09 0.00 85 1015.3
20260905141045 69 100 5.0 11.0 0.00 0.09 0.00 85 1015.4
20260905140545 69 89 7.0 11.0 0.00 0.09 0.00 85 1015.1
20260905140124 70 100 4.0 10.0 0.00 0.09 0.00 86 1015.1
20260905135544 69 69 6.0 11.0 0.00 0.26 0.00 86 1014.9
20260905135048 69 90 7.0 11.0 0.00 0.26 0.00 86 1014.9
20260905134607 69 88 7.0 11.0 0.00 0.26 0.00 86 1014.9
20260905134044 69 99 7.0 12.0 0.00 0.26 0.00 87 1014.8
20260905133544 69 99 7.0 12.0 0.00 0.26 0.00 87 1014.9
20260905133105 69 92 7.0 14.0 0.00 0.26 0.00 87 1014.9
20260905132544 68 85 9.0 14.0 0.00 0.26 0.00 87 1015.0
20260905132044 68 117 8.0 14.0 0.00 0.26 0.00 88 1015.0
20260905131610 69 90 8.0 13.0 0.00 0.26 0.00 88 1015.0
20260905131047 69 89 8.0 13.0 0.00 0.26 0.00 88 1014.9
20260905130548 69 74 9.0 13.0 0.00 0.26 0.00 89 1014.8
20260905130112 69 100 7.0 13.0 0.00 0.26 0.00 89 1014.7
20260905125547 68 73 9.0 13.0 0.00 0.68 0.00 89 1014.8
20260905125045 68 80 10.0 13.0 0.00 0.68 0.00 90 1014.8
20260905124603 68 87 9.0 13.0 0.00 0.68 0.00 90 1014.7
20260905124044 68 90 9.0 13.0 0.00 0.68 0.00 90 1014.5
20260905123544 69 86 9.0 13.0 0.00 0.68 0.00 90 1014.4
20260905123101 69 86 7.0 12.0 0.00 0.68 0.00 90 1014.4
20260905122544 69 80 8.0 14.0 0.00 0.68 0.00 91 1014.4